Queralbs





Hora UTC 18:15
Temperatura 16.8 ºC
Humitat 66.0 %
Pressió 1011.1 hPa
Pluja 0.0 mm
Velocitat vent 3.2 km/h
Direcció vent ENE
Radiació solar 84.0 W/m²

Dades diàries 2020-08-03



Hora UTC (hivern +1h; estiu +2h)
Temperatura (ºC) Humitat (%) Pressió (hPa) Velocitat vent (km/h) Precipitació (mm) Radiació solar (W/m²)
Hora UTC Aire Humitat Pressió Vel. Dir. Vel. Max Dir. Intent. màx 5 min. Rad. Sol.
00:05 17.0 73.0 1011.9 3.2 SSE 3.2 0.0 0.0
00:10 17.0 73.0 1011.9 1.6 S 6.4 0.0 0.0
00:15 16.9 73.0 1011.8 3.2 S 6.4 0.0 0.0
00:20 16.9 73.0 1011.8 3.2 S 6.4 0.0 0.0
00:25 16.9 73.0 1011.8 4.8 SSE 8.0 0.0 0.0
00:30 16.9 73.0 1011.8 3.2 SE 9.7 0.0 0.0
00:35 16.9 73.0 1011.8 3.2 S 9.7 0.0 0.0
00:40 16.8 73.0 1011.8 1.6 S 6.4 0.0 0.0
00:45 16.8 73.0 1011.7 6.4 SSE 12.9 0.0 0.0
00:50 16.7 73.0 1011.7 4.8 SSE 12.9 0.0 0.0
00:55 16.7 73.0 1011.7 8.0 S 9.7 0.0 0.0
01:00 16.6 73.0 1011.5 3.2 SSE 11.3 0.0 0.0
01:05 16.6 73.0 1011.5 3.2 SE 6.4 0.0 0.0
01:10 16.5 73.0 1011.3 1.6 SE 6.4 0.0 0.0
01:15 16.4 73.0 1011.3 1.6 ESE 6.4 0.0 0.0
01:20 16.4 73.0 1011.2 1.6 ESE 6.4 0.0 0.0
01:25 16.4 73.0 1011.0 1.6 ESE 4.8 0.0 0.0
01:30 16.4 73.0 1010.8 0.0 ESE 3.2 0.0 0.0
01:35 16.3 72.0 1010.8 0.0 ESE 0.0 0.0 0.0
01:40 16.3 72.0 1010.9 3.2 ESE 3.2 0.0 0.0
01:45 16.3 72.0 1010.8 1.6 ESE 3.2 0.0 0.0
01:50 16.2 72.0 1010.7 1.6 ESE 4.8 0.0 0.0
01:55 16.2 72.0 1010.6 0.0 ESE 4.8 0.0 0.0
02:00 16.2 72.0 1010.6 1.6 ESE 3.2 0.0 0.0
02:05 16.1 73.0 1010.5 1.6 ESE 3.2 0.0 0.0
02:10 16.1 73.0 1010.5 0.0 ESE 3.2 0.0 0.0
02:15 16.1 73.0 1010.6 1.6 ESE 3.2 0.0 0.0
02:20 16.1 73.0 1010.6 0.0 ESE 3.2 0.0 0.0
02:25 16.1 73.0 1010.7 0.0 ESE 3.2 0.0 0.0
02:30 16.1 73.0 1010.7 0.0 ESE 1.6 0.0 0.0
02:35 16.1 73.0 1010.7 0.0 ESE 1.6 0.0 0.0
02:40 16.0 73.0 1010.5 0.0 ESE 1.6 0.0 0.0
02:45 15.9 73.0 1010.5 0.0 ESE 3.2 0.0 0.0
02:50 15.9 73.0 1010.4 0.0 ESE 3.2 0.0 0.0
02:55 15.8 73.0 1010.4 0.0 ESE 0.0 0.0 0.0
03:00 15.8 73.0 1010.2 0.0 ESE 0.0 0.0 0.0
03:05 15.8 73.0 1010.2 0.0 ESE 0.0 0.0 0.0
03:10 15.8 73.0 1010.3 0.0 ESE 0.0 0.0 0.0
03:15 15.8 74.0 1010.4 0.0 ESE 0.0 0.0 0.0
03:20 15.7 74.0 1010.3 0.0 ESE 0.0 0.0 0.0
03:25 15.7 74.0 1010.3 0.0 ESE 0.0 0.0 0.0
03:30 15.6 75.0 1010.3 0.0 ESE 0.0 0.0 0.0
03:35 15.7 75.0 1010.4 0.0 ESE 0.0 0.0 0.0
03:40 15.6 75.0 1010.4 0.0 ESE 0.0 0.0 0.0
03:45 15.6 75.0 1010.5 0.0 ESE 0.0 0.0 0.0
03:50 15.6 76.0 1010.5 0.0 ESE 0.0 0.0 0.0
03:55 15.6 76.0 1010.7 0.0 ESE 0.0 0.0 0.0
04:00 15.6 77.0 1010.6 0.0 ESE 0.0 0.0 0.0
04:05 15.6 77.0 1010.4 0.0 ESE 0.0 0.0 0.0
04:10 15.5 77.0 1010.4 0.0 ESE 0.0 0.0 0.0
04:15 15.4 77.0 1010.2 0.0 SE 0.0 0.0 0.0
04:20 15.2 77.0 1010.1 0.0 SE 0.0 0.0 0.0
04:25 14.9 77.0 1010.2 0.0 SE 0.0 0.0 0.0
04:30 14.7 76.0 1010.4 0.0 SE 0.0 0.0 0.0
04:35 14.3 75.0 1010.2 0.0 SSE 0.0 0.0 0.0
04:40 14.1 74.0 1010.5 0.0 SSE 0.0 0.0 0.0
04:45 13.8 74.0 1010.3 0.0 SSW 0.0 0.0 0.0
04:50 13.7 74.0 1010.3 0.0 SSW 0.0 0.0 0.0
04:55 13.8 74.0 1010.4 0.0 SSW 0.0 0.0 0.0
05:00 13.9 75.0 1010.3 0.0 SSW 0.0 0.0 0.0
05:05 14.0 75.0 1010.4 0.0 SSW 0.0 0.0 5.0
05:10 14.1 75.0 1010.4 0.0 S 0.0 0.0 9.0
05:15 14.0 74.0 1010.3 0.0 S 0.0 0.0 12.0
05:20 14.1 75.0 1010.2 0.0 S 0.0 0.0 21.0
05:25 14.1 75.0 1010.1 0.0 S 0.0 0.0 26.0
05:30 14.1 75.0 1010.1 0.0 S 0.0 0.0 25.0
05:35 14.1 75.0 1010.2 0.0 S 0.0 0.0 30.0
05:40 14.0 74.0 1010.4 0.0 S 0.0 0.0 28.0
05:45 13.8 73.0 1010.3 0.0 SSE 6.4 0.0 26.0
05:50 13.7 73.0 1010.3 0.0 SSE 6.4 0.0 25.0
05:55 13.6 72.0 1010.4 3.2 SSE 3.2 0.0 23.0
06:00 13.6 73.0 1010.4 1.6 SSE 4.8 0.0 21.0
06:05 13.6 72.0 1010.4 1.6 SSE 4.8 0.0 14.0
06:10 13.6 72.0 1010.3 0.0 SSE 4.8 0.0 14.0
06:15 13.6 72.0 1010.3 1.6 SSE 4.8 0.0 51.0
06:20 13.7 72.0 1010.3 0.0 SSE 4.8 0.0 67.0
06:25 13.7 73.0 1010.3 0.0 SSE 3.2 0.0 69.0
06:30 13.8 72.0 1010.2 0.0 SSE 0.0 0.0 47.0
06:35 13.9 72.0 1010.2 1.6 SSE 1.6 0.0 83.0
06:40 14.0 72.0 1010.3 1.6 SSE 4.8 0.0 84.0
06:45 14.1 72.0 1010.4 3.2 SSE 4.8 0.0 98.0
06:50 14.1 71.0 1010.5 3.2 SSE 4.8 0.0 86.0
06:55 14.1 71.0 1010.6 0.0 SSE 8.0 0.0 88.0
07:00 14.1 70.0 1010.8 3.2 SSE 8.0 0.0 74.0
07:05 14.1 70.0 1010.9 3.2 ESE 8.0 0.0 81.0
07:10 14.1 69.0 1011.1 0.0 ESE 6.4 0.0 107.0
07:15 14.0 69.0 1011.2 3.2 ENE 6.4 0.0 163.0
07:20 14.1 70.0 1011.1 3.2 E 6.4 0.0 202.0
07:25 14.2 70.0 1011.1 3.2 SSE 4.8 0.0 241.0
07:30 14.4 69.0 1011.1 3.2 SSE 6.4 0.0 229.0
07:35 14.6 69.0 1011.1 3.2 SSE 8.0 0.0 258.0
07:40 14.9 68.0 1011.0 1.6 SSE 4.8 0.0 272.0
07:45 15.2 68.0 1011.1 4.8 SSE 4.8 0.0 343.0
07:50 15.7 68.0 1011.1 4.8 S 6.4 0.0 740.0
07:55 15.9 66.0 1011.2 4.8 SSE 8.0 0.0 285.0
08:00 15.9 67.0 1011.1 3.2 SSE 8.0 0.0 253.0
08:05 15.9 66.0 1011.2 4.8 SSE 4.8 0.0 209.0
08:10 16.0 66.0 1011.1 1.6 SSE 4.8 0.0 204.0
08:15 16.4 66.0 1010.8 3.2 SSE 8.0 0.0 677.0
08:20 16.7 66.0 1010.8 8.0 SE 8.0 0.0 691.0
08:25 17.3 65.0 1010.9 4.8 SSE 8.0 0.0 708.0
08:30 17.7 65.0 1011.0 8.0 SSE 9.7 0.0 719.0
08:35 18.2 64.0 1010.9 8.0 SSE 8.0 0.0 742.0
08:40 18.2 63.0 1010.8 4.8 SSE 9.7 0.0 751.0
08:45 18.2 63.0 1010.9 8.0 SSE 11.3 0.0 766.0
08:50 18.3 64.0 1010.9 8.0 SSE 12.9 0.0 773.0
08:55 18.7 63.0 1011.2 4.8 SE 12.9 0.0 800.0
09:00 18.9 62.0 1011.1 8.0 SE 14.5 0.0 854.0
09:05 19.1 62.0 1011.1 11.3 S 16.1 0.0 893.0
09:10 19.4 61.0 1011.2 11.3 SSE 16.1 0.0 1002.0
09:15 19.6 59.0 1011.3 16.1 SE 16.1 0.0 1034.0
09:20 19.7 60.0 1011.3 14.5 SE 17.7 0.0 1034.0
09:25 19.9 60.0 1011.3 9.7 SE 17.7 0.0 1085.0
09:30 19.9 58.0 1011.2 11.3 SSE 17.7 0.0 1123.0
09:35 19.9 59.0 1011.2 12.9 S 17.7 0.0 1011.0
09:40 20.1 58.0 1011.2 9.7 SSE 17.7 0.0 965.0
09:45 20.2 58.0 1011.3 12.9 SSE 17.7 0.0 919.0
09:50 20.0 58.0 1011.3 14.5 SSE 17.7 0.0 947.0
09:55 19.9 58.0 1011.3 14.5 SSE 19.3 0.0 983.0
10:00 20.0 59.0 1011.4 6.4 S 17.7 0.0 984.0
10:05 20.2 57.0 1011.3 11.3 S 19.3 0.0 993.0
10:10 20.3 57.0 1011.4 6.4 S 19.3 0.0 1042.0
10:15 20.3 57.0 1011.4 6.4 S 17.7 0.0 1111.0
10:20 20.4 56.0 1011.3 3.2 SE 17.7 0.0 1121.0
10:25 20.6 57.0 1011.3 9.7 SSW 17.7 0.0 1062.0
10:30 20.6 56.0 1011.3 9.7 SSE 14.5 0.0 1165.0
10:35 20.7 56.0 1011.2 14.5 S 16.1 0.0 1162.0
10:40 20.8 56.0 1011.3 12.9 SSE 14.5 0.0 1216.0
10:45 21.0 55.0 1011.2 8.0 S 14.5 0.0 1213.0
10:50 20.9 54.0 1011.2 12.9 SSE 16.1 0.0 1028.0
10:55 20.8 54.0 1011.1 8.0 SSW 16.1 0.0 1107.0
11:00 20.9 54.0 1011.0 11.3 S 16.1 0.0 1153.0
11:05 21.1 54.0 1011.1 16.1 SSE 22.5 0.0 1172.0
11:10 20.8 53.0 1011.2 4.8 S 22.5 0.0 1204.0
11:15 20.4 54.0 1011.2 8.0 S 14.5 0.0 330.0
11:20 19.9 55.0 1011.3 12.9 SE 14.5 0.0 369.0
11:25 19.6 56.0 1011.4 9.7 SSE 17.7 0.0 287.0
11:30 19.3 57.0 1011.7 16.1 SSE 17.7 0.0 399.0
11:35 19.2 57.0 1011.7 9.7 S 16.1 0.0 466.0
11:40 19.1 58.0 1011.6 8.0 SSE 16.1 0.0 471.0
11:45 18.8 58.0 1011.5 6.4 SSW 14.5 0.0 360.0
11:50 18.7 59.0 1011.5 9.7 SW 16.1 0.0 320.0
11:55 18.6 60.0 1011.5 9.7 SSW 16.1 0.0 239.0
12:00 18.6 60.0 1011.6 11.3 SSW 14.5 0.0 315.0
12:05 18.7 60.0 1011.5 4.8 SSW 14.5 0.0 315.0
12:10 18.8 58.0 1011.4 8.0 SSE 9.7 0.0 265.0
12:15 18.7 59.0 1011.5 1.6 SW 9.7 0.0 338.0
12:20 18.8 59.0 1011.6 11.3 SSE 14.5 0.0 429.0
12:25 19.3 61.0 1011.5 4.8 S 14.5 0.0 527.0
12:30 19.8 57.0 1011.6 11.3 S 14.5 0.0 466.0
12:35 19.7 57.0 1011.5 6.4 S 16.1 0.0 441.0
12:40 19.7 57.0 1011.4 4.8 S 16.1 0.0 513.0
12:45 19.8 56.0 1011.5 3.2 S 14.5 0.0 446.0
12:50 19.6 57.0 1011.4 9.7 S 12.9 0.0 292.0
12:55 19.3 57.0 1011.4 9.7 SSE 12.9 0.0 253.0
13:00 19.2 57.0 1011.4 8.0 SSE 14.5 0.0 476.0
13:05 19.3 58.0 1011.4 8.0 S 14.5 0.0 411.0
13:10 19.4 58.0 1011.4 11.3 S 14.5 0.0 376.0
13:15 19.5 58.0 1011.3 8.0 SE 16.1 0.0 766.0
13:20 20.1 57.0 1011.4 9.7 SSE 16.1 0.0 1359.0
13:25 20.2 54.0 1011.2 3.2 SSW 14.5 0.0 359.0
13:30 19.7 55.0 1011.2 11.3 SSE 17.7 0.0 320.0
13:35 19.3 56.0 1011.2 9.7 SSW 16.1 0.0 323.0
13:40 19.1 57.0 1011.1 6.4 SW 14.5 0.0 378.0
13:45 19.1 57.0 1011.1 3.2 S 19.3 0.0 288.0
13:50 18.9 56.0 1011.2 9.7 SSE 17.7 0.0 269.0
13:55 18.7 58.0 1011.0 16.1 SSE 17.7 0.0 278.0
14:00 18.8 57.0 1010.8 8.0 SE 16.1 0.0 322.0
14:05 18.9 57.0 1011.0 8.0 S 16.1 0.0 216.0
14:10 18.8 56.0 1011.0 11.3 SE 17.7 0.0 144.0
14:15 18.6 58.0 1010.9 3.2 S 17.7 0.0 118.0
14:20 18.4 58.0 1010.8 3.2 SSW 14.5 0.0 171.0
14:25 18.4 59.0 1010.7 6.4 ESE 14.5 0.0 174.0
14:30 18.4 59.0 1010.7 8.0 S 11.3 0.0 141.0
14:35 18.4 59.0 1010.9 3.2 SE 11.3 0.0 111.0
14:40 18.5 58.0 1010.9 4.8 ESE 11.3 0.0 134.0
14:45 18.6 59.0 1010.8 1.6 ESE 8.0 0.0 144.0
14:50 18.7 59.0 1010.8 4.8 SE 9.7 0.0 155.0
14:55 18.7 58.0 1010.8 1.6 SE 9.7 0.0 104.0
15:00 18.6 60.0 1010.8 1.6 E 6.4 0.0 76.0
15:05 18.5 61.0 1011.0 1.6 E 3.2 0.0 84.0
15:10 18.4 62.0 1010.9 0.0 E 3.2 0.0 151.0
15:15 18.3 62.0 1010.7 0.0 E 3.2 0.0 199.0
15:20 18.3 62.0 1010.7 0.0 ENE 4.8 0.0 350.0
15:25 18.3 59.0 1010.8 3.2 ENE 4.8 0.0 162.0
15:30 18.3 58.0 1010.8 1.6 ENE 4.8 0.0 355.0
15:35 18.4 59.0 1010.8 3.2 ESE 4.8 0.0 239.0
15:40 19.0 58.0 1010.8 1.6 SSE 8.0 0.0 856.0
15:45 19.3 59.0 1010.8 3.2 ESE 8.0 0.0 190.0
15:50 19.3 57.0 1010.8 4.8 S 6.4 0.0 114.0
15:55 19.2 58.0 1010.9 6.4 S 11.3 0.0 155.0
16:00 18.9 59.0 1010.9 3.2 SW 11.3 0.0 167.0
16:05 18.8 60.0 1011.0 3.2 SSE 9.7 0.0 272.0
16:10 18.7 60.0 1011.1 3.2 S 8.0 0.0 265.0
16:15 18.7 60.0 1011.1 4.8 S 8.0 0.0 232.0
16:20 18.7 60.0 1011.0 4.8 S 8.0 0.0 172.0
16:25 18.7 60.0 1011.0 3.2 SSW 6.4 0.0 183.0
16:30 18.6 60.0 1011.0 3.2 SSW 6.4 0.0 188.0
16:35 18.5 59.0 1011.1 6.4 S 8.0 0.0 190.0
16:40 18.4 60.0 1011.1 1.6 S 8.0 0.0 209.0
16:45 18.6 60.0 1011.1 3.2 S 8.0 0.0 190.0
16:50 18.7 60.0 1011.0 3.2 S 6.4 0.0 190.0
16:55 18.7 60.0 1011.0 3.2 S 6.4 0.0 188.0
17:00 18.7 60.0 1011.0 4.8 S 4.8 0.0 116.0
17:05 18.7 61.0 1010.9 3.2 S 4.8 0.0 77.0
17:10 18.4 62.0 1010.9 0.0 S 4.8 0.0 81.0
17:15 18.3 62.0 1010.8 1.6 S 4.8 0.0 100.0
17:20 18.2 62.0 1010.7 1.6 S 4.8 0.0 84.0
17:25 18.1 64.0 1010.8 1.6 S 4.8 0.0 93.0
17:30 17.9 63.0 1010.9 4.8 SSW 6.4 0.0 81.0
17:35 17.8 64.0 1010.8 1.6 SSW 6.4 0.0 62.0
17:40 17.7 64.0 1010.7 3.2 SSW 4.8 0.0 56.0
17:45 17.6 65.0 1010.8 0.0 SSE 8.0 0.0 58.0
17:50 17.6 66.0 1010.7 3.2 SSE 8.0 0.0 70.0
17:55 17.4 66.0 1010.9 4.8 SSE 4.8 0.0 70.0
18:00 17.2 65.0 1010.9 3.2 SE 6.4 0.0 83.0
18:05 17.1 65.0 1010.9 3.2 ENE 6.4 0.0 77.0
18:05 16.9 65.0 1011.1 3.2 ENE 6.4 0.0 74.0
18:15 16.8 66.0 1011.1 3.2 ENE 6.4 0.0 84.0
Màxima 21.1 77.0 1011.9 16.1 SSE 22.5 0.0 1359.0
Mínima 13.5 53.0 1010.1
Total 0.0